Location: Dzierzno
(50.6159°N, 19.2852°E)
Time: 00:13:08
(UTC+00:00)

Geosat - Pass Details

Date: 18 November 2025
Orbit: 758 x 760 km, 108.0° (Epoch: 05 December)

Event Time Altitude Azimuth Distance (km) Brightness Sun altitude
Exits shadow 17:25:20 54° 138° (SE) 922 4.1 -23.9°
Maximum altitude 17:26:30 83° 57° (ENE) 772 3.8 -24.1°
Drops below altitude 10° 17:31:32 10° 331° (NNW) 2,303 6.8 -24.8°
Sets 17:33:49 0° 331° (NNW) 3,233 7.6 -25.2°
